Wind_Speed
48 48 49 49 50 50 50 50 49 49 49 50 50 50 51 51 52 52 53 53 54 54 53 53 53 52 52 52 52 52 52 52 51 51 51 50 50 51
46 47 47 48 48 49 50 50 50 50 50 50 51 50 50 50 50 50 51 51 51 52 52 51 51 51 51 51 51 51 50 49 49 49 49 49 49 49
44 45 45 46 47 47 48 49 49 50 49 48 49 49 49 48 48 48 48 49 49 50 50 51 51 51 51 50 49 48 48 47 48 48 48 48 48 48
42 43 43 44 45 45 46 47 48 49 49 47 46 46 46 47 46 46 47 48 48 48 49 50 50 51 50 49 48 47 47 46 47 47 46 46 46 46
41 42 42 42 43 43 44 45 46 46 46 46 45 45 45 45 45 45 45 46 46 46 46 46 48 48 48 48 47 47 46 46 46 46 45 44 44 45
40 41 41 41 42 42 43 43 43 43 43 44 43 43 44 44 44 45 45 45 45 45 45 45 45 45 45 46 46 46 46 45 45 45 44 44 44 43
39 40 40 40 41 41 41 41 40 40 41 41 41 42 42 42 42 43 43 42 43 44 43 43 43 42 42 43 43 44 44 44 43 43 43 42 42 42
37 38 38 38 39 39 39 39 39 39 39 39 39 39 40 40 40 40 41 40 40 41 40 40 39 39 40 40 40 40 41 41 41 41 40 39 38 39
36 37 37 37 37 37 37 38 38 38 38 38 38 38 37 38 38 38 38 38 37 37 37 37 37 37 38 38 38 38 38 38 37 37 37 36 36 36
34 35 35 34 35 36 36 36 37 37 37 36 35 35 35 35 35 35 35 35 35 35 35 35 35 35 36 36 36 35 35 35 34 34 34 35 36 36
33 33 34 34 34 34 34 35 35 35 34 34 33 33 33 33 33 33 33 32 32 32 32 33 33 33 33 33 33 33 32 32 32 32 32 32 33 33
32 32 33 33 33 33 33 33 33 32 31 31 31 31 31 32 32 31 30 30 30 30 30 30 30 30 29 30 31 30 30 30 30 30 30 30 30 30
30 30 31 31 32 32 32 31 30 29 29 29 29 30 30 30 30 30 29 29 29 29 29 28 28 27 27 26 26 27 27 27 28 27 27 27 27 27
28 28 29 29 29 29 29 29 28 27 27 28 28 29 29 29 29 28 28 28 27 27 27 27 26 25 25 24 24 24 25 25 25 25 25 25 25 25
26 27 27 27 27 27 27 27 27 27 27 27 27 27 27 27 27 26 26 26 26 26 25 25 25 24 24 23 22 22 22 22 23 23 23 23 23 23
25 25 26 26 26 25 26 26 26 26 26 26 26 26 26 26 25 25 25 25 24 24 24 23 23 23 22 22 21 20 20 20 20 21 21 21 21 21
23 24 24 24 24 24 25 25 25 25 24 24 24 24 24 23 23 23 24 23 23 22 22 22 22 21 21 20 20 20 20 19 19 19 19 19 19 18
23 23 23 23 23 23 24 24 23 23 23 23 23 23 22 22 22 22 22 21 21 20 20 20 19 19 19 18 18 18 18 18 18 18 17 17 17 17
22 22 22 22 23 23 23 22 22 22 22 22 21 21 21 21 20 20 20 19 18 19 18 18 17 17 16 16 16 17 16 16 16 15 16 16 15 15
20 21 21 21 21 21 21 21 21 21 21 20 20 20 20 19 19 18 17 17 16 16 16 16 15 15 14 14 14 14 14 14 14 13 14 14 14 14
19 20 20 20 19 20 20 20 20 19 19 19 19 18 18 17 16 16 15 14 14 14 14 14 14 13 13 14 13 12 12 12 12 12 12 12 12 12
19 19 18 18 18 19 19 19 18 17 17 17 16 16 16 15 14 13 13 13 13 13 13 13 14 13 13 13 12 11 11 10 11 11 11 11 10 11
17 17 17 17 17 17 18 17 16 15 14 14 14 14 13 13 12 12 11 12 12 12 12 13 13 13 13 13 12 11 10 10 10 10 10 11 11 10
Wind_Direction
278 279 280 280 281 281 282 284 284 284 284 284 284 284 283 282 281 280 279 279 278 278 278 278 277 277 277 277 276 275 274 274 273 273 272 272 272 272
280 281 281 281 281 281 282 283 284 285 285 285 285 283 283 282 281 280 280 279 279 278 278 278 278 277 277 277 276 275 273 273 273 273 273 273 272 272
282 283 283 283 284 284 283 284 285 286 286 286 285 284 283 283 282 281 281 281 280 280 280 279 278 278 277 276 275 273 273 273 273 273 273 273 273 273
283 284 284 284 285 286 286 286 286 286 286 286 285 284 284 284 284 283 282 282 281 281 281 280 279 278 277 276 273 273 274 273 272 272 273 273 274 274
283 284 284 285 285 286 287 288 287 287 287 286 286 285 285 285 285 284 284 283 283 282 283 282 281 278 276 274 273 273 273 273 273 272 273 273 274 275
282 283 284 284 285 287 288 289 289 289 288 288 286 286 286 286 286 285 284 283 283 283 283 283 281 279 276 275 274 273 273 273 273 273 272 273 274 276
282 283 284 284 286 288 289 290 291 291 290 289 288 288 288 287 287 286 285 283 283 283 283 283 282 280 278 277 276 274 274 274 274 273 272 273 273 274
282 284 285 286 287 289 290 291 292 292 291 291 290 290 290 289 289 288 287 285 284 284 284 284 283 282 280 279 277 276 275 275 275 274 273 271 272 273
284 285 286 287 288 289 291 292 292 293 293 292 291 291 291 291 290 290 289 288 287 286 285 286 285 284 282 281 280 278 277 277 275 274 272 271 271 272
284 285 286 288 290 292 293 293 294 294 294 293 292 292 293 294 294 293 292 291 290 289 288 288 287 285 284 283 281 280 279 278 276 274 273 271 271 271
284 285 286 289 292 294 295 295 294 294 294 293 293 294 295 296 296 295 295 294 292 291 291 290 288 287 285 283 282 281 280 278 277 276 274 273 272 271
285 288 290 292 293 295 296 296 295 295 295 295 295 296 297 297 298 298 297 296 294 293 293 293 292 289 286 284 283 281 279 279 278 277 275 274 273 272
287 289 291 293 294 296 297 296 297 296 296 296 297 298 298 298 298 299 298 296 295 295 294 294 293 292 289 286 284 283 280 280 280 279 277 276 274 273
287 290 292 294 296 297 297 297 297 298 298 297 298 299 300 299 300 299 298 297 297 297 296 295 295 293 291 289 287 285 283 282 280 279 278 278 277 275
288 291 293 294 296 298 298 297 298 298 299 298 299 301 302 301 301 301 300 300 300 300 299 298 296 294 292 292 290 288 285 283 280 278 278 278 278 277
288 290 292 294 297 298 299 299 299 300 299 299 300 302 303 302 301 301 301 301 302 303 302 300 298 297 295 293 291 290 287 284 281 280 279 278 278 276
288 290 292 295 297 299 300 300 300 301 301 301 302 302 302 303 302 301 302 302 303 303 302 300 299 298 298 297 294 291 288 284 281 280 280 278 277 275
289 290 292 295 298 300 302 302 302 302 302 302 302 303 304 304 304 304 304 304 304 305 305 303 302 301 300 298 297 294 290 286 284 282 280 276 274 273
290 291 293 296 299 301 304 304 304 304 304 303 304 304 305 305 305 305 306 307 307 308 309 309 307 306 303 301 300 298 295 292 289 285 281 276 273 271
292 293 295 298 300 303 306 306 306 306 305 305 305 306 306 306 306 307 308 309 310 313 313 313 312 311 310 309 307 303 299 298 295 291 288 283 277 275
296 296 297 299 301 305 308 308 308 307 307 307 308 308 309 309 309 310 312 314 315 317 317 317 316 315 317 318 317 312 308 306 302 297 294 289 283 280
299 299 299 301 302 305 308 308 308 308 309 309 310 312 314 314 315 315 316 318 319 320 319 319 318 317 319 322 323 320 316 312 311 309 305 298 293 288
301 302 303 304 305 307 309 309 310 311 312 314 315 318 319 320 321 320 318 319 319 320 321 321 322 320 320 323 325 324 319 317 316 313 309 305 302 297
Height
5645 5644 5643 5641 5639 5637 5635 5633 5632 5631 5630 5626 5623 5619 5617 5615 5613 5611 5610 5608 5606 5605 5603 5602 5601 5599 5598 5597 5595 5594 5593 5592 5591 5590 5590 5589 5589 5588
5633 5632 5630 5628 5626 5624 5622 5620 5618 5616 5616 5614 5610 5606 5603 5601 5599 5597 5596 5594 5592 5590 5588 5587 5586 5584 5583 5582 5580 5579 5578 5577 5576 5576 5575 5575 5574 5574
5621 5619 5618 5615 5613 5611 5609 5607 5605 5602 5601 5600 5596 5593 5590 5588 5586 5584 5582 5580 5578 5576 5574 5572 5571 5569 5568 5567 5565 5564 5563 5563 5562 5562 5561 5561 5560 5560
5610 5608 5606 5604 5602 5599 5597 5594 5592 5589 5587 5586 5583 5580 5578 5575 5573 5570 5568 5566 5564 5562 5560 5558 5556 5554 5553 5552 5551 5550 5549 5549 5549 5548 5548 5548 5547 5546
5599 5597 5595 5593 5590 5588 5585 5582 5579 5576 5574 5572 5571 5568 5565 5562 5560 5558 5555 5553 5551 5548 5546 5544 5542 5540 5538 5538 5537 5536 5536 5536 5535 5535 5534 5534 5533 5533
5588 5586 5584 5581 5579 5577 5574 5571 5568 5565 5562 5560 5558 5555 5553 5550 5547 5545 5543 5540 5538 5535 5533 5530 5528 5526 5525 5524 5524 5523 5523 5522 5521 5521 5521 5521 5521 5520
5577 5575 5573 5570 5568 5566 5563 5560 5557 5554 5551 5549 5546 5544 5541 5538 5535 5533 5531 5528 5526 5522 5520 5518 5516 5514 5512 5511 5510 5509 5509 5509 5508 5508 5508 5508 5508 5508
5567 5564 5562 5560 5557 5555 5552 5549 5547 5544 5541 5538 5535 5533 5530 5527 5524 5521 5518 5517 5515 5512 5509 5507 5504 5503 5501 5499 5498 5497 5497 5496 5496 5496 5496 5496 5496 5496
5557 5555 5552 5550 5547 5545 5542 5540 5537 5533 5530 5527 5525 5522 5520 5517 5514 5511 5507 5505 5503 5500 5498 5496 5493 5492 5490 5488 5486 5485 5485 5484 5484 5484 5484 5484 5485 5485
5547 5545 5543 5540 5538 5535 5533 5530 5527 5524 5521 5518 5515 5513 5510 5506 5503 5500 5497 5495 5492 5490 5488 5486 5484 5481 5479 5477 5476 5474 5474 5473 5473 5473 5473 5473 5474 5474
5538 5536 5533 5531 5529 5527 5524 5522 5519 5515 5511 5509 5506 5504 5501 5497 5494 5491 5489 5486 5484 5481 5478 5476 5474 5472 5470 5468 5466 5465 5464 5464 5463 5463 5463 5463 5463 5464
5529 5527 5525 5523 5520 5517 5515 5513 5510 5507 5504 5501 5498 5496 5492 5489 5486 5483 5480 5477 5475 5473 5470 5467 5465 5463 5463 5460 5457 5456 5455 5455 5454 5454 5454 5454 5454 5454
5521 5519 5517 5514 5512 5509 5507 5504 5502 5499 5496 5494 5491 5488 5485 5481 5478 5475 5472 5469 5467 5464 5462 5459 5457 5455 5453 5453 5451 5449 5447 5447 5446 5446 5445 5445 5445 5446
5514 5511 5509 5507 5504 5502 5499 5497 5494 5491 5489 5487 5484 5481 5478 5474 5471 5468 5465 5462 5459 5457 5454 5452 5450 5448 5446 5445 5444 5442 5440 5439 5439 5438 5438 5438 5438 5437
5506 5504 5502 5500 5497 5495 5492 5490 5487 5484 5482 5479 5477 5474 5470 5467 5464 5461 5458 5455 5452 5450 5447 5444 5443 5441 5439 5438 5437 5435 5434 5433 5432 5431 5431 5431 5431 5430
5499 5497 5495 5493 5491 5488 5486 5483 5480 5478 5475 5473 5470 5467 5464 5461 5458 5455 5452 5449 5447 5444 5441 5438 5436 5434 5433 5431 5430 5429 5427 5427 5426 5425 5425 5425 5424 5424
5492 5490 5489 5487 5485 5482 5479 5477 5474 5471 5468 5466 5463 5460 5457 5454 5452 5449 5446 5444 5441 5438 5436 5433 5430 5428 5427 5425 5424 5423 5422 5421 5420 5419 5419 5419 5419 5418
5486 5484 5482 5480 5478 5476 5473 5471 5468 5465 5462 5460 5457 5454 5451 5449 5446 5443 5441 5438 5436 5433 5431 5428 5426 5424 5423 5421 5419 5418 5416 5415 5414 5414 5413 5413 5414 5413
5479 5478 5476 5474 5472 5470 5467 5464 5462 5459 5456 5454 5451 5449 5446 5443 5441 5438 5436 5433 5431 5429 5426 5423 5421 5420 5418 5417 5415 5412 5411 5410 5409 5409 5408 5408 5408 5408
5473 5471 5470 5468 5466 5464 5461 5459 5456 5454 5451 5448 5446 5443 5441 5438 5436 5434 5431 5429 5427 5425 5422 5420 5418 5416 5414 5413 5411 5409 5407 5406 5405 5404 5403 5403 5403 5403
5467 5466 5464 5462 5460 5458 5456 5453 5451 5448 5446 5443 5441 5438 5436 5434 5432 5429 5427 5425 5423 5421 5419 5417 5415 5413 5411 5409 5408 5406 5404 5402 5400 5399 5399 5399 5398 5398
5462 5460 5458 5457 5455 5453 5450 5448 5446 5443 5441 5438 5436 5434 5432 5430 5428 5426 5424 5422 5420 5418 5416 5414 5412 5410 5408 5406 5404 5403 5401 5399 5397 5396 5395 5395 5394 5394
5456 5455 5453 5451 5449 5447 5445 5443 5441 5439 5437 5435 5433 5431 5429 5427 5425 5423 5422 5420 5418 5416 5414 5412 5410 5408 5406 5404 5402 5400 5398 5397 5395 5394 5393 5391 5390 5390